Regional Weather Roundup
Issued by NWS

Home | Current Version | Previous Version | Graphics & Text | Print | Product List | Glossary On
Versions: 1 2 3 4 5 6 7 8 9 10 11 12 13 14 15 16 17 18 19 20 21 22 23 24 25 26 27
000
ASUS45 KCYS 232210
RWRWY

WYOMING REGIONAL WEATHER ROUNDUP
NATIONAL WEATHER SERVICE CHEYENNE WY
400 PM MDT THU OCT 23 2014

NOTE:  "FAIR" INDICATES FEW OR NO CLOUDS BELOW 12,000 FEET
WITH NO SIGNIFICANT WEATHER AND/OR OBSTRUCTIONS TO VISIBILITY.

WYZ001-232300-
YELLOWSTONE NATIONAL PARK

CITY           SKY/WX    TMP DP  RH WIND       PRES   REMARKS
LK YELLOWSTONE   N/A     46  25  43 VRB5      30.17
W YELLOWSTONE  NOT AVBL

$$
WYZ002>013-054>058-071-098>099-232300-
NORTHERN WYOMING

CITY           SKY/WX    TMP DP  RH WIND       PRES   REMARKS
JACKSON        PTSUNNY   57  27  30 S18       30.11F
CODY           MOSUNNY   66  25  20 W8G18     29.94S
GREYBULL       PTSUNNY   69  26  20 CALM      29.89F
WORLAND        MOSUNNY   72  27  18 SW3       29.89F
SHERIDAN       PTSUNNY   68  32  26 NE8       29.89S
BUFFALO        PTSUNNY   68  23  18 NE3       29.95F
GILLETTE       SUNNY     69  26  20 NW6       29.93S
HULETT         FAIR      66  28  24 W5        29.94S
NEWCASTLE      FAIR      66  25  20 NW6       29.95

$$
WYZ014>020-022>026-101>103-232300-
CENTRAL WYOMING

CITY           SKY/WX    TMP DP  RH WIND       PRES   REMARKS
BIG PINEY      LGT RAIN  60  22  23 W20       30.15F
PINEDALE       PTCLDY    55  27  33 CALM      30.17
DUBOIS         FAIR      55  21  26 MISG      30.06S
LANDER         PTSUNNY   63  28  26 CALM      29.99F
RIVERTON       PTSUNNY   64  24  21 E7        30.00F
CASPER         MOSUNNY   69  21  16 SW24G40   30.00F
DOUGLAS        SUNNY     70  24  17 W23G31    30.01S

$$
WYZ021-027>030-104>119-232300-
SOUTHERN WYOMING

CITY           SKY/WX    TMP DP  RH WIND       PRES   REMARKS
EVANSTON       MOSUNNY   65  22  19 W21G29    30.17F
KEMMERER       PTCLDY    59  23  25 W22G29    30.16F
FORT BRIDGER   FAIR      67  22  18 W16G30    30.19S
ROCK SPRINGS   MOSUNNY   62  25  24 SW10      30.15F
DIXON          FAIR      65  30  26 SW16G22   30.20F
RAWLINS        PTSUNNY   63  27  25 SW24G30   30.15F
SARATOGA       FAIR      63  28  27 SW20G26   30.19F
LARAMIE        PTSUNNY   61  28  28 SW14      30.17S
CHEYENNE       PTSUNNY   68  32  26 SW14      30.12
TORRINGTON     SUNNY     75  30  19 W18       29.98S
PINE BLUFFS    FAIR      66  32  28 SW10      30.08S

$$



USA.gov is the U.S. government's official web portal to all federal, state and local government web resources and services.